Weather in Denau

Uzbekistan     38˚16′29″N   67˚53′46″E
temp.,
°C
wind,
m/s
gust,
m/s
humid.,
%
clouds,
%
prec.,
mm/h
press.,
hPa
HPBL,
m
3 december, thu
thu323:00+8˚ssw234330 0.0 102446
02:00+6˚nnw00495 0.0 102422
05:00+5˚ssw015228 0.0 102522
08:00+5˚sw115274 0.0 102522
11:00+11˚sw113787 0.0 1026224
14:00+13˚w1139100 0.0 1023349
17:00+11˚ssw3440100 0.0 1024113
20:00+9˚ssw71044100 0.0 1025487
4 december, fri
fri423:00+7˚ssw4666100 0.1 1026500
02:00+6˚wsw1185100 0.4 1026218
05:00+6˚nw1088100 1.1 1026203
08:00+5˚sw4590100 0.5 1027289
11:00+5˚ssw4677100 0.7 1028433
14:00+7˚sw4464100 0.0 1028614
17:00+6˚sw345199 0.0 1028365
20:00+6˚ssw133995 0.0 1030296
5 december, sat
sat523:00+4˚nnw226096 0.0 103058
02:00+4˚n227059 0.0 102954
05:00+3˚ne226477 0.0 102845
08:00+4˚n2275100 0.0 102883
11:00+6˚nne2277100 0.0 1027321
14:00+9˚nne126045 0.0 1025663
17:00+7˚wnw116822 0.0 102422
20:00+6˚ssw22720 0.0 102522
6 december, sun
sun623:00+4˚s127812 0.0 102622
02:00+3˚ene11860 0.0 102622
05:00+3˚ne228324 0.0 102522
08:00+3˚ne227614 0.0 102622
11:00+10˚nne234714 0.0 1025392
14:00+13˚nne34327 0.0 1022818
17:00+11˚nne343934 0.0 102133
20:00+9˚nne3443100 0.0 102045
7 december, mon
mon723:00+9˚ne2243100 0.0 101925
02:00+9˚ssw4642100 0.0 1019109
05:00+7˚ssw3664100 0.0 1020192
08:00+7˚sw3661100 0.1 1024247
11:00+5˚sw5674100 0.9 1027531
14:00+4˚nne4590100 1.6 1027242
17:00+5˚w1189100 2.3 1029188
20:00+5˚wsw1190100 0.3 1030149